Location: Ammerl�gen
(47.2167°N, 9.6000°E)
Time: 10:38:13
(UTC+00:00)

NOSS 3-1 (A) - Pass Details

Date: 21 April 2021
Orbit: 733 x 1479 km, 63.4° (Epoch: 01 May)

Event Time Altitude Azimuth Distance (km) Brightness Sun altitude
Rises 21:28:22 0° 319° (NW) 3,882 7.9 -25.6°
Reaches altitude 10° 21:30:52 10° 322° (NW) 3,023 7.1 -25.8°
Maximum altitude 21:38:16 75° 48° (NE) 1,330 4.1 -26.4°
Enters shadow 21:41:02 46° 120° (ESE) 1,722 4.3 -26.6°
